Location: Unspecified
(0.0000°N, 0.0000°E)
Time: 06:31:22
(UTC+00:00)

Courier 1B - Pass Details

Date: 02 October 2023
Orbit: 962 x 1208 km, 28.3° (Epoch: 06 December)

Event Time Altitude Azimuth Distance (km) Brightness Sun altitude
Rises 20:42:22 0° 275° (W) 4,019 11.5 -43.2°
Reaches altitude 10° 20:45:45 10° 263° (W) 3,022 10.7 -44.0°
Enters shadow 20:49:46 23° 233° (SW) 2,140 9.6 -45.0°
Maximum altitude 20:51:47 27° 208° (SSW) 1,985 - -45.5°
Drops below altitude 10° 20:57:33 10° 153° (SSE) 2,873 - -46.9°
Sets 21:00:42 0° 141° (SE) 3,786 - -47.7°
